N7QMJ Weather Reports


Display with metric or nautical units.
time (UTC)temp
F
wind
direction
speed
MPH
gust
MPH
rain 1hr
in
rain 24hr
in
rain mn
in
humidity
%
barometer
mb
20180821192118 84 278 6.0 12.0 0.00 0.00 0.00 16 1018.3
20180821191618 81 0 5.0 17.0 0.00 0.00 0.00 16 1018.3
20180821191119 81 340 5.0 17.0 0.00 0.00 0.00 17 1018.4
20180821190618 82 309 7.0 15.0 0.00 0.00 0.00 17 1018.4
20180821190120 82 314 6.0 11.0 0.00 0.00 0.00 17 1018.5
20180821185620 84 0 7.0 12.0 0.00 0.00 0.00 18 1018.4
20180821185118 82 257 8.0 12.0 0.00 0.00 0.00 18 1018.5
20180821184617 82 240 5.0 10.0 0.00 0.00 0.00 17 1018.6
20180821184119 82 266 1.0 9.0 0.00 0.00 0.00 17 1018.5
20180821183618 83 209 4.0 21.0 0.00 0.00 0.00 18 1018.6
20180821183117 82 0 12.0 21.0 0.00 0.00 0.00 17 1018.6
20180821182617 82 0 5.0 15.0 0.00 0.00 0.00 18 1018.5
20180821182118 82 0 6.0 16.0 0.00 0.00 0.00 18 1018.5
20180821181617 82 0 11.0 16.0 0.00 0.00 0.00 17 1018.6
20180821181117 81 0 7.0 17.0 0.00 0.00 0.00 17 1018.6
20180821180618 81 157 7.0 17.0 0.00 0.00 0.00 17 1018.6
20180821180116 81 0 9.0 23.0 0.00 0.00 0.00 18 1018.6
20180821175616 79 0 6.0 23.0 0.00 0.00 0.00 17 1018.7
20180821175117 80 0 6.0 18.0 0.00 0.00 0.00 18 1018.6
20180821174616 80 0 11.0 19.0 0.00 0.00 0.00 18 1018.8
20180821174115 79 0 10.0 19.0 0.00 0.00 0.00 18 1018.8
20180821173616 78 206 12.0 19.0 0.00 0.00 0.00 18 1019.0
20180821173115 79 193 11.0 19.0 0.00 0.00 0.00 18 1019.0
20180821172615 79 219 12.0 18.0 0.00 0.00 0.00 19 1018.8
20180821172115 78 216 7.0 18.0 0.00 0.00 0.00 18 1018.8
20180821171617 78 221 11.0 17.0 0.00 0.00 0.00 18 1018.8
20180821171116 77 0 12.0 17.0 0.00 0.00 0.00 19 1018.8
20180821170618 77 195 10.0 17.0 0.00 0.00 0.00 19 1018.7
20180821170116 77 0 12.0 17.0 0.00 0.00 0.00 19 1018.8
20180821165616 77 230 9.0 15.0 0.00 0.00 0.00 20 1018.8
20180821165115 77 0 9.0 13.0 0.00 0.00 0.00 22 1018.8
20180821164616 76 0 7.0 15.0 0.00 0.00 0.00 21 1018.7
20180821164114 76 0 9.0 15.0 0.00 0.00 0.00 22 1018.8
20180821163614 76 0 6.0 14.0 0.00 0.00 0.00 23 1018.8
20180821163115 75 0 8.0 13.0 0.00 0.00 0.00 22 1018.7
20180821162615 75 0 7.0 13.0 0.00 0.00 0.00 22 1018.7
20180821162115 74 0 5.0 9.0 0.00 0.00 0.00 21 1018.7
20180821161613 74 258 6.0 9.0 0.00 0.00 0.00 22 1018.7
20180821161115 73 266 2.0 9.0 0.00 0.00 0.00 22 1018.7
20180821160616 72 259 2.0 5.0 0.00 0.00 0.00 22 1018.7
20180821160114 72 257 3.0 5.0 0.00 0.00 0.00 23 1018.8
20180821155614 72 0 2.0 5.0 0.00 0.00 0.00 24 1018.7
20180821155114 71 333 3.0 5.0 0.00 0.00 0.00 24 1018.8
20180821154613 70 0 1.0 5.0 0.00 0.00 0.00 25 1018.8
20180821154114 70 0 2.0 4.0 0.00 0.00 0.00 25 1018.8
20180821153614 69 0 2.0 4.0 0.00 0.00 0.00 27 1018.8
20180821153112 68 0 2.0 4.0 0.00 0.00 0.00 28 1018.8
20180821152612 67 0 3.0 5.0 0.00 0.00 0.00 31 1018.8
20180821152113 66 0 3.0 6.0 0.00 0.00 0.00 33 1018.8
20180821151612 65 0 4.0 6.0 0.00 0.00 0.00 39 1018.8
20180821151111 63 0 0.0 3.0 0.00 0.00 0.00 45 1018.8
20180821150612 62 0 2.0 3.0 0.00 0.00 0.00 53 1018.6
20180821150112 60 0 2.0 3.0 0.00 0.00 0.00 53 1018.7
20180821145612 60 0 0.0 3.0 0.00 0.00 0.00 51 1018.7
20180821145111 59 0 2.0 3.0 0.00 0.00 0.00 52 1018.6
20180821144611 58 0 1.0 3.0 0.00 0.00 0.00 54 1018.6
20180821144114 58 0 2.0 5.0 0.00 0.00 0.00 56 1018.6
20180821143611 57 0 2.0 5.0 0.00 0.00 0.00 55 1018.6
20180821143112 57 0 2.0 5.0 0.00 0.00 0.00 54 1018.6
20180821142612 56 0 2.0 5.0 0.00 0.00 0.00 52 1018.5
20180821142111 56 0 2.0 4.0 0.00 0.00 0.00 50 1018.5
20180821141613 55 0 0.0 3.0 0.00 0.00 0.00 50 1018.4
20180821141111 55 0 1.0 4.0 0.00 0.00 0.00 51 1018.4
20180821140611 0 0 1.0 5.0 0.00 0.00 0.00 1018.4
20180821140110 53 0 3.0 5.0 0.00 0.00 0.00 51 1018.4
20180821135612 53 316 2.0 3.0 0.00 0.00 0.00 51 1018.4
20180821135111 53 73 2.0 3.0 0.00 0.00 0.00 51 1018.4
20180821134611 53 111 1.0 3.0 0.00 0.00 0.00 51 1018.3
20180821134110 53 111 0.0 3.0 0.00 0.00 0.00 51 1018.3
20180821133611 53 111 1.0 3.0 0.00 0.00 0.00 51 1018.1
20180821133110 53 109 0.0 3.0 0.00 0.00 0.00 51 1018.1
20180821132609 53 109 1.0 3.0 0.00 0.00 0.00 52 1018.1
20180821132109 54 114 2.0 4.0 0.00 0.00 0.00 53 1018.0
20180821131610 54 114 2.0 4.0 0.00 0.00 0.00 53 1017.9
20180821131109 54 114 1.0 6.0 0.00 0.00 0.00 53 1018.0
20180821130610 54 114 3.0 6.0 0.00 0.00 0.00 52 1018.0
20180821130110 54 154 2.0 4.0 0.00 0.00 0.00 51 1017.9
20180821125611 54 135 1.0 4.0 0.00 0.00 0.00 51 1017.9
20180821125109 54 0 2.0 4.0 0.00 0.00 0.00 50 1017.9
20180821124609 55 357 2.0 4.0 0.00 0.00 0.00 51 1017.9
20180821124109 55 309 2.0 4.0 0.00 0.00 0.00 51 1017.8
20180821123609 55 63 2.0 3.0 0.00 0.00 0.00 51 1017.9
20180821123110 55 65 1.0 3.0 0.00 0.00 0.00 51 1017.9
20180821122609 55 85 2.0 3.0 0.00 0.00 0.00 50 1017.9
20180821122109 55 100 2.0 3.0 0.00 0.00 0.00 50 1017.8
20180821121609 55 147 1.0 4.0 0.00 0.00 0.00 50 1017.8
20180821121108 55 152 4.0 4.0 0.00 0.00 0.00 50 1017.8
20180821120607 55 162 2.0 4.0 0.00 0.00 0.00 49 1017.8
20180821120107 56 76 1.0 3.0 0.00 0.00 0.00 48 1017.8
20180821115606 56 76 0.0 3.0 0.00 0.00 0.00 47 1017.8
20180821115109 57 76 1.0 2.0 0.00 0.00 0.00 47 1017.8
20180821114607 57 76 0.0 3.0 0.00 0.00 0.00 47 1017.8
20180821114108 57 75 1.0 5.0 0.00 0.00 0.00 46 1017.9
20180821113607 58 75 3.0 5.0 0.00 0.00 0.00 47 1017.9
20180821113107 58 89 2.0 5.0 0.00 0.00 0.00 50 1017.8
20180821112606 58 106 3.0 5.0 0.00 0.00 0.00 45 1017.7
20180821112107 58 250 2.0 7.0 0.00 0.00 0.00 44 1017.7
20180821111607 58 204 4.0 7.0 0.00 0.00 0.00 44 1017.7
20180821111107 58 192 4.0 7.0 0.00 0.00 0.00 45 1017.7
20180821110608 58 149 2.0 3.0 0.00 0.00 0.00 46 1017.8
20180821110106 58 290 2.0 3.0 0.00 0.00 0.00 45 1017.8
20180821105607 58 290 2.0 5.0 0.00 0.00 0.00 45 1017.9
20180821105105 58 290 4.0 5.0 0.00 0.00 0.00 45 1017.9
20180821104606 59 312 2.0 4.0 0.00 0.00 0.00 44 1017.9
20180821104106 59 312 3.0 3.0 0.00 0.00 0.00 44 1017.9
20180821103605 59 312 1.0 4.0 0.00 0.00 0.00 43 1017.9
20180821103108 60 312 2.0 4.0 0.00 0.00 0.00 43 1017.8
20180821102605 60 176 0.0 3.0 0.00 0.00 0.00 42 1017.8
20180821102105 61 176 1.0 3.0 0.00 0.00 0.00 42 1017.8
20180821101604 61 176 2.0 3.0 0.00 0.00 0.00 41 1017.8
20180821101104 61 176 2.0 3.0 0.00 0.00 0.00 41 1017.8
20180821100605 61 176 1.0 4.0 0.00 0.00 0.00 41 1017.9
20180821100105 61 176 3.0 5.0 0.00 0.00 0.00 41 1017.9
20180821095605 61 243 3.0 5.0 0.00 0.00 0.00 41 1017.9
20180821095105 62 250 4.0 6.0 0.00 0.00 0.00 41 1017.9
20180821094604 62 255 4.0 7.0 0.00 0.00 0.00 41 1017.9
20180821094106 62 244 6.0 7.0 0.00 0.00 0.00 42 1018.0
20180821093604 62 251 6.0 7.0 0.00 0.00 0.00 42 1018.0
20180821093104 62 254 5.0 7.0 0.00 0.00 0.00 42 1017.9
20180821092604 62 251 5.0 7.0 0.00 0.00 0.00 42 1018.0
20180821092104 61 238 6.0 9.0 0.00 0.00 0.00 42 1018.0
20180821091603 61 233 7.0 9.0 0.00 0.00 0.00 43 1018.0
20180821091103 61 235 6.0 9.0 0.00 0.00 0.00 42 1018.1
20180821090605 61 231 5.0 7.0 0.00 0.00 0.00 42 1018.1
20180821090102 61 230 5.0 9.0 0.00 0.00 0.00 42 1018.1
20180821085603 61 231 6.0 9.0 0.00 0.00 0.00 42 1018.3
20180821085103 61 241 6.0 7.0 0.00 0.00 0.00 42 1018.3
20180821084604 61 237 6.0 7.0 0.00 0.00 0.00 42 1018.1
20180821084103 61 235 6.0 7.0 0.00 0.00 0.00 41 1018.3
20180821083603 61 268 3.0 4.0 0.00 0.00 0.00 41 1018.3
20180821083102 61 268 3.0 5.0 0.00 0.00 0.00 41 1018.3
20180821082602 61 268 4.0 6.0 0.00 0.00 0.00 40 1018.4
20180821082103 61 278 3.0 6.0 0.00 0.00 0.00 40 1018.4
20180821081601 61 276 5.0 6.0 0.00 0.00 0.00 40 1018.4
20180821081102 61 276 4.0 6.0 0.00 0.00 0.00 38 1018.3
20180821080601 61 265 3.0 5.0 0.00 0.00 0.00 37 1018.4
20180821080103 62 259 1.0 3.0 0.00 0.00 0.00 37 1018.4
20180821075600 62 259 1.0 3.0 0.00 0.00 0.00 36 1018.4
20180821075103 63 258 0.0 3.0 0.00 0.00 0.00 35 1018.5
20180821074601 63 258 0.0 2.0 0.00 0.00 0.00 35 1018.6
20180821074102 63 258 2.0 2.0 0.00 0.00 0.00 35 1018.5
20180821073603 64 254 1.0 2.0 0.00 0.00 0.00 34 1018.6
20180821073100 65 254 1.0 3.0 0.00 0.00 0.00 33 1018.6
20180821072600 66 252 2.0 6.0 0.00 0.00 0.00 33 1018.5
20180821072102 66 255 1.0 9.0 0.00 0.00 0.00 32 1018.5
20180821071601 66 262 6.0 9.0 0.00 0.00 0.00 32 1018.5
20180821071100 66 272 6.0 10.0 0.00 0.00 0.00 31 1018.4
20180821070600 66 269 6.0 10.0 0.00 0.00 0.00 30 1018.4
20180821070100 67 255 7.0 10.0 0.00 0.00 0.00 30 1018.4
20180821065601 67 255 5.0 10.0 0.00 0.00 0.00 30 1018.5
20180821065100 67 252 7.0 11.0 0.00 0.00 0.00 30 1018.5
20180821064602 67 275 7.0 11.0 0.00 0.00 0.00 29 1018.5
20180821064100 67 259 7.0 11.0 0.00 0.00 0.00 29 1018.4
20180821063600 67 272 7.0 15.0 0.00 0.00 0.00 29 1018.4
20180821063101 67 240 9.0 15.0 0.00 0.00 0.00 29 1018.4
20180821062600 68 254 10.0 14.0 0.00 0.00 0.00 29 1018.4
20180821062059 68 0 10.0 14.0 0.00 0.00 0.00 29 1018.3
20180821061600 68 0 9.0 13.0 0.00 0.00 0.00 29 1018.3
20180821061100 69 0 8.0 15.0 0.00 0.00 0.00 29 1018.3
20180821060558 68 0 12.0 16.0 0.00 0.00 0.00 29 1018.1
20180821060059 69 0 10.0 18.0 0.00 0.00 0.00 29 1018.1
20180821055559 69 0 12.0 18.0 0.00 0.00 0.00 28 1018.1
20180821055101 68 0 11.0 17.0 0.00 0.00 0.00 29 1018.0
20180821054559 68 0 13.0 18.0 0.00 0.00 0.00 28 1018.0
20180821054058 69 0 15.0 18.0 0.00 0.00 0.00 28 1018.0
20180821053600 70 0 11.0 14.0 0.00 0.00 0.00 26 1018.0
20180821053057 70 0 9.0 15.0 0.00 0.00 0.00 25 1018.0
20180821052557 71 0 10.0 15.0 0.00 0.00 0.00 25 1018.0
20180821052058 71 0 9.0 15.0 0.00 0.00 0.00 24 1018.0
20180821051600 71 0 8.0 15.0 0.00 0.00 0.00 24 1018.0
20180821051056 71 0 10.0 15.0 0.00 0.00 0.00 24 1018.0
20180821050558 71 0 11.0 15.0 0.00 0.00 0.00 23 1018.1
20180821050057 72 0 10.0 17.0 0.00 0.00 0.00 23 1018.0
20180821045558 72 0 12.0 17.0 0.00 0.00 0.00 23 1017.9
20180821045056 72 0 11.0 18.0 0.00 0.00 0.00 23 1017.9
20180821044557 72 0 12.0 18.0 0.00 0.00 0.00 23 1018.0
20180821044057 72 0 13.0 19.0 0.00 0.00 0.00 23 1018.0
20180821043557 72 0 13.0 19.0 0.00 0.00 0.00 23 1017.9
20180821043057 73 0 13.0 19.0 0.00 0.00 0.00 23 1017.9
20180821042558 73 0 15.0 18.0 0.00 0.00 0.00 23 1017.9
20180821042055 73 0 9.0 18.0 0.00 0.00 0.00 23 1017.8
20180821041555 73 0 11.0 18.0 0.00 0.00 0.00 23 1017.7
20180821041056 73 0 10.0 15.0 0.00 0.00 0.00 23 1017.6
20180821040557 73 0 9.0 16.0 0.00 0.00 0.00 22 1017.6
20180821040057 74 0 11.0 24.0 0.00 0.00 0.00 22 1017.4
20180821035558 74 0 10.0 24.0 0.00 0.00 0.00 22 1017.3
20180821035056 74 0 11.0 15.0 0.00 0.00 0.00 22 1017.4
20180821034556 74 0 11.0 15.0 0.00 0.00 0.00 22 1017.3
20180821034057 75 0 11.0 15.0 0.00 0.00 0.00 22 1017.3
20180821033555 75 0 9.0 17.0 0.00 0.00 0.00 22 1017.4
20180821033055 75 0 9.0 21.0 0.00 0.00 0.00 22 1017.3
20180821032555 75 0 13.0 21.0 0.00 0.00 0.00 22 1017.4
20180821032055 75 0 13.0 18.0 0.00 0.00 0.00 22 1017.4
20180821031553 75 0 11.0 15.0 0.00 0.00 0.00 22 1017.3
20180821031054 75 0 11.0 15.0 0.00 0.00 0.00 22 1017.2
20180821030554 75 0 12.0 15.0 0.00 0.00 0.00 21 1017.2
20180821030053 76 0 9.0 14.0 0.00 0.00 0.00 21 1017.2
20180821025555 76 0 9.0 14.0 0.00 0.00 0.00 21 1017.2
20180821025053 76 0 9.0 13.0 0.00 0.00 0.00 20 1017.2
20180821024554 77 0 10.0 14.0 0.00 0.00 0.00 20 1017.1
20180821024054 77 0 11.0 14.0 0.00 0.00 0.00 20 1017.1
20180821023554 78 0 9.0 16.0 0.00 0.00 0.00 19 1017.1
20180821023053 78 0 12.0 16.0 0.00 0.00 0.00 19 1017.0
20180821022554 78 0 8.0 15.0 0.00 0.00 0.00 19 1017.0
20180821022052 0 0 9.0 15.0 0.00 0.00 0.00 1016.9
20180821021552 80 0 8.0 15.0 0.00 0.00 0.00 18 1016.7
20180821021054 80 0 10.0 18.0 0.00 0.00 0.00 18 1016.7
20180821020554 80 0 11.0 18.0 0.00 0.00 0.00 16 1016.6
20180821020053 0 0 8.0 16.0 0.00 0.00 0.00 1016.5
20180821015554 82 0 9.0 19.0 0.00 0.00 0.00 16 1016.4
20180821015051 82 0 9.0 19.0 0.00 0.00 0.00 16 1016.4
20180821014554 82 0 10.0 15.0 0.00 0.00 0.00 16 1016.4
20180821014054 82 0 10.0 18.0 0.00 0.00 0.00 16 1016.3
20180821013552 83 0 13.0 18.0 0.00 0.00 0.00 16 1016.3
20180821013053 83 0 11.0 17.0 0.00 0.00 0.00 16 1016.3
20180821012551 83 0 12.0 22.0 0.00 0.00 0.00 16 1016.2
20180821012052 84 0 11.0 22.0 0.00 0.00 0.00 15 1016.3
20180821011553 84 0 9.0 18.0 0.00 0.00 0.00 15 1016.2
20180821011052 85 0 11.0 18.0 0.00 0.00 0.00 15 1016.0
20180821010551 85 0 13.0 18.0 0.00 0.00 0.00 14 1016.2
20180821010051 85 0 13.0 18.0 0.00 0.00 0.00 14 1016.2
20180821005551 85 268 11.0 20.0 0.00 0.00 0.00 14 1016.0
20180821005051 86 300 11.0 20.0 0.00 0.00 0.00 14 1015.8
20180821004551 86 312 9.0 17.0 0.00 0.00 0.00 14 1015.9
20180821004050 86 293 8.0 16.0 0.00 0.00 0.00 13 1015.9
20180821003550 87 337 7.0 16.0 0.00 0.00 0.00 13 1015.9
20180821003050 87 274 8.0 17.0 0.00 0.00 0.00 12 1015.8
20180821002550 88 298 10.0 17.0 0.00 0.00 0.00 13 1015.9
20180821002050 88 252 11.0 20.0 0.00 0.00 0.00 12 1015.9
20180821001549 88 281 12.0 21.0 0.00 0.00 0.00 13 1015.9
20180821001050 88 264 15.0 21.0 0.00 0.00 0.00 12 1015.8
20180821000550 89 269 10.0 18.0 0.00 0.00 0.00 12 1015.8
20180821000049 89 271 11.0 18.0 0.00 0.00 0.00 12 1015.8
20180820235548 89 252 9.0 17.0 0.00 0.00 0.00 13 1015.9
20180820235050 89 296 11.0 17.0 0.00 0.00 0.00 13 1015.8
20180820234551 89 293 9.0 18.0 0.00 0.00 0.00 12 1015.8
20180820234049 90 292 9.0 18.0 0.00 0.00 0.00 12 1015.8
20180820233549 90 240 12.0 21.0 0.00 0.00 0.00 12 1015.8
20180820233049 89 289 12.0 21.0 0.00 0.00 0.00 12 1015.7
20180820232549 90 317 9.0 20.0 0.00 0.00 0.00 12 1015.7
20180820232048 90 276 10.0 20.0 0.00 0.00 0.00 12 1015.7
20180820231549 90 271 12.0 19.0 0.00 0.00 0.00 12 1015.7
20180820231049 90 340 10.0 19.0 0.00 0.00 0.00 11 1015.7
20180820230549 91 317 11.0 19.0 0.00 0.00 0.00 11 1015.7
20180820230050 91 264 11.0 20.0 0.00 0.00 0.00 12 1015.8
20180820225548 90 295 13.0 20.0 0.00 0.00 0.00 12 1015.9
20180820225046 89 298 10.0 18.0 0.00 0.00 0.00 11 1015.8
20180820224547 91 257 10.0 20.0 0.00 0.00 0.00 11 1015.8
20180820224047 91 268 13.0 20.0 0.00 0.00 0.00 11 1015.9
20180820223547 92 224 10.0 16.0 0.00 0.00 0.00 11 1016.0
20180820223048 91 286 11.0 16.0 0.00 0.00 0.00 11 1015.9
20180820222547 91 233 10.0 17.0 0.00 0.00 0.00 11 1016.0
20180820222046 92 0 9.0 18.0 0.00 0.00 0.00 11 1016.0
20180820221546 92 0 12.0 18.0 0.00 0.00 0.00 12 1016.0
20180820221045 91 0 13.0 18.0 0.00 0.00 0.00 11 1016.2
20180820220546 91 0 10.0 17.0 0.00 0.00 0.00 11 1016.2
20180820220046 91 0 13.0 17.0 0.00 0.00 0.00 12 1016.3
20180820215548 90 0 8.0 16.0 0.00 0.00 0.00 12 1016.3
20180820215047 92 303 9.0 16.0 0.00 0.00 0.00 12 1016.4
20180820214547 92 309 5.0 14.0 0.00 0.00 0.00 12 1016.4
20180820214045 92 248 10.0 15.0 0.00 0.00 0.00 12 1016.5
20180820213545 91 279 11.0 15.0 0.00 0.00 0.00 12 1016.5
20180820213046 89 281 4.0 14.0 0.00 0.00 0.00 12 1016.5
20180820212545 89 290 7.0 14.0 0.00 0.00 0.00 12 1016.6
20180820212044 91 310 7.0 13.0 0.00 0.00 0.00 12 1016.6
20180820211547 89 271 7.0 12.0 0.00 0.00 0.00 13 1016.6
20180820211046 88 251 7.0 12.0 0.00 0.00 0.00 13 1016.7
20180820210544 89 320 6.0 7.0 0.00 0.00 0.00 13 1016.9
20180820210045 89 250 1.0 9.0 0.00 0.00 0.00 14 1016.7
20180820205547 88 79 3.0 9.0 0.00 0.00 0.00 14 1016.9
20180820205045 87 27 6.0 11.0 0.00 0.00 0.00 15 1017.1
20180820204544 86 73 5.0 11.0 0.00 0.00 0.00 15 1017.0
20180820204047 87 351 6.0 16.0 0.00 0.00 0.00 15 1017.1
20180820203544 87 21 6.0 16.0 0.00 0.00 0.00 15 1017.1
20180820203044 87 317 9.0 13.0 0.00 0.00 0.00 15 1017.1
20180820202544 88 0 7.0 11.0 0.00 0.00 0.00 15 1017.2
20180820202045 86 343 1.0 11.0 0.00 0.00 0.00 15 1017.1
20180820201544 88 0 5.0 11.0 0.00 0.00 0.00 15 1017.3
20180820201045 86 313 5.0 11.0 0.00 0.00 0.00 15 1017.3
20180820200546 88 310 5.0 11.0 0.00 0.00 0.00 14 1017.3
20180820200043 88 158 4.0 13.0 0.00 0.00 0.00 14 1017.3
20180820195544 88 235 6.0 13.0 0.00 0.00 0.00 14 1017.4
20180820195043 88 300 7.0 13.0 0.00 0.00 0.00 15 1017.3
20180820194544 86 276 7.0 13.0 0.00 0.00 0.00 15 1017.4
20180820194044 88 258 5.0 12.0 0.00 0.00 0.00 16 1017.6
20180820193543 85 306 3.0 9.0 0.00 0.00 0.00 16 1017.6
20180820193043 85 344 3.0 5.0 0.00 0.00 0.00 16 1017.6
20180820192541 86 281 1.0 5.0 0.00 0.00 0.00 17 1017.7